Location: Kelshall
(52.0000°N, 0.0500°W)
Time: 06:53:08
(UTC+00:00)

ATLAS 2AS CENTAUR R/B - Pass Details

Date: 18 September 2020
Orbit: 939 x 1273 km, 63.7° (Epoch: 19 October)

Event Time Altitude Azimuth Distance (km) Brightness Sun altitude
Exits shadow 22:59:05 27° 256° (WSW) 2,242 4.3 -35.4°
Maximum altitude 23:03:40 60° 326° (NW) 1,432 3.4 -35.6°
Drops below altitude 10° 23:11:21 10° 45° (NE) 3,183 5.5 -35.9°
Sets 23:14:07 0° 50° (NE) 4,112 6.1 -35.9°
